[[{"header":{"parameterUnit":"m.s-1","parameterCategory":1,"la1":30.2991,"la2":30.254,"lo1":-89.0895,"lo2":-89.0444,"dy":0.0017,"dx":0.0017,"nx":28,"ny":28,"refTime":"2025-12-13T03:00:00:Z","depth":0,"parameterNumber":2,"parameterNumberName":"U-component_of_WINDS"},"data":[0,0,0,0,0,0,0,0,0,0,0,0,0,0,0,0,0,0,0,0,0,0,0,0,0,0,0,0,0,0,0,0,0,0,0,0,0,0,0,0,0,0,0,0,0,0,0,0,0,0,0,0,0,0,0,0,0,0,-1.7351,-1.7351,0,-1.7414,-1.7415,-1.7415,-1.7369,-1.7367,-1.7365,-1.7363,-1.743,-1.7434,-1.7437,0,0,0,0,0,0,0,0,0,0,0,0,0,-1.7193,-1.7196,-1.7351,-1.7352,-1.7352,-1.7414,-1.7415,-1.7415,-1.7369,-1.7367,-1.7364,-1.7362,-1.7429,-1.7433,-1.7437,0,0,0,0,0,0,0,0,0,0,0,0,0,-1.7259,-1.7197,-1.7351,-1.7337,-1.7336,-1.7414,-1.7415,-1.7416,-1.737,-1.7367,-1.7364,-1.7361,-1.7427,-1.7433,-1.7438,-1.7534,0,0,-1.7455,-1.7457,0,0,0,0,0,0,0,0,-1.7256,-1.7265,-1.7338,-1.7338,-1.7337,-1.738,-1.7383,-1.7455,-1.7371,-1.7357,-1.7363,-1.7359,-1.7416,-1.7422,-1.7441,-1.7537,-1.7539,-1.7455,-1.7459,-1.7461,-1.7463,0,0,0,0,0,0,0,-1.7251,-1.7262,-1.7376,-1.7339,-1.7339,-1.7328,-1.7334,-1.7397,-1.7403,-1.7358,-1.7355,-1.7363,-1.7415,-1.7436,-1.7442,-1.754,-1.7455,-1.746,-1.7464,-1.7466,-1.7718,-1.7722,0,0,0,0,0,0,-1.7247,-1.7259,-1.7374,-1.7378,-1.7288,-1.7333,-1.734,-1.737,-1.7402,-1.7404,-1.7365,-1.736,-1.7428,-1.7436,-1.7444,-1.7558,-1.7461,-1.7466,-1.747,-1.7715,-1.7719,-1.7723,0,0,0,0,0,0,-1.7244,-1.7258,-1.7371,-1.7317,-1.7331,-1.7339,-1.7373,-1.7373,-1.7393,-1.7408,-1.7409,-1.7385,-1.7426,-1.7437,-1.7512,-1.756,-1.7469,-1.7474,-1.7711,-1.7716,-1.7721,-1.7787,0,0,0,0,0,0,-1.724,-1.7257,-1.7293,-1.7318,-1.7334,-1.7437,-1.7376,-1.7376,-1.7402,-1.7396,-1.7426,-1.7428,-1.7424,-1.7504,-1.7517,-1.7566,-1.7478,-1.7707,-1.7713,-1.7719,-1.7781,-1.7794,-1.7805,0,0,0,0,0,-1.7234,-1.7309,-1.7295,-1.7309,-1.7379,-1.744,-1.7449,-1.7441,-1.7406,-1.7443,-1.7452,-1.7427,-1.7553,-1.7512,-1.7527,-1.7578,-1.7704,-1.7712,-1.7719,-1.7775,-1.7791,-1.7805,0,0,0,0,0,0,-1.729,-1.7312,-1.7297,-1.7382,-1.7409,-1.7432,-1.7477,-1.7459,-1.7497,-1.749,-1.748,-1.7487,-1.7566,-1.758,-1.7534,-1.7672,-1.7623,-1.7634,-1.7661,-1.7676,-1.7688,-1.7683,-1.7483,0,0,0,0,0,-1.7312,-1.7359,-1.7376,-1.745,-1.7464,-1.7469,-1.7495,-1.7487,-1.7515,-1.7527,-1.7542,-1.7571,-1.7617,-1.7647,-1.769,-1.7783,-1.7789,-1.7826,-1.7838,-1.7848,-1.7857,-1.7908,-1.7924,-1.7748,-1.7748,-1.7748,0,0,-1.7358,-1.7376,-1.7407,-1.7462,-1.7482,-1.7531,-1.7479,-1.7533,-1.757,-1.7535,-1.7607,-1.7619,-1.7651,-1.7735,-1.7773,-1.7749,-1.7907,-1.7857,-1.7865,-1.7869,-1.7917,-1.7934,-1.7949,-1.7753,-1.7752,-1.7751,0,0,-1.7467,-1.7486,-1.7549,-1.7571,-1.7602,-1.7604,-1.762,-1.7645,-1.7652,-1.7724,-1.7698,-1.7743,-1.7822,-1.7846,-1.7868,-1.7988,-1.7967,-1.8002,-1.8066,-1.8116,-1.813,-1.8142,-1.8185,-1.82,-1.8012,-1.8012,-1.8012,0,-1.7521,-1.7594,-1.7584,-1.7641,-1.7666,-1.7637,-1.7701,-1.7723,-1.7767,-1.7785,-1.7757,-1.7856,-1.7876,-1.7965,-1.7995,-1.8014,-1.8032,-1.7999,-1.8128,-1.814,-1.8152,-1.8193,-1.8209,-1.8016,-1.8016,-1.8015,-1.8015,0,-1.7659,-1.771,-1.7757,-1.78,-1.7831,-1.7891,-1.7892,-1.7924,-1.7914,-1.792,-1.7994,-1.8016,-1.8063,-1.8084,-1.8075,-1.8173,-1.8157,-1.8129,-1.8079,-1.8173,-1.8211,-1.8227,-1.8022,-1.8021,-1.8019,-1.8018,0,0,-1.7804,-1.7841,-1.7858,-1.7877,-1.791,-1.795,-1.801,-1.8055,-1.8083,-1.8115,-1.8165,-1.8234,-1.8208,-1.8233,-1.8227,-1.827,-1.8364,-1.8237,-1.8238,-1.826,-1.8474,-1.8495,-1.8513,-1.8351,-1.8354,-1.8356,-1.8472,0,-1.7915,-1.8017,-1.8011,-1.8108,-1.8156,-1.8129,-1.8181,-1.8207,-1.8215,-1.8257,-1.8265,-1.8314,-1.8276,-1.8291,-1.8333,-1.8344,-1.8407,-1.8336,-1.8398,-1.84,-1.839,-1.8533,-1.8555,-1.8663,-1.8486,-1.8489,-1.8491,0,-1.8057,-1.8093,-1.8195,-1.8221,-1.8241,-1.8288,-1.8329,-1.837,-1.8399,-1.8402,-1.8431,-1.8418,-1.8479,-1.8428,-1.8513,-1.8464,-1.849,-1.8499,-1.8503,-1.8508,-1.8451,-1.8542,-1.8697,-1.8713,-1.8514,-1.8512,-1.8511,0,-1.8153,-1.8227,-1.8297,-1.8315,-1.8347,-1.8381,-1.8396,-1.8422,-1.845,-1.8487,-1.8506,-1.855,-1.8574,-1.8609,-1.8608,-1.8571,-1.8694,-1.8643,-1.8698,-1.8699,-1.8725,-1.8723,-1.8886,-1.8742,-1.8742,-1.8742,-1.8742,0,-1.8277,-1.834,-1.8341,-1.8384,-1.8455,-1.8447,-1.8518,-1.8529,-1.8554,-1.86,-1.858,-1.8623,-1.862,-1.8665,-1.8665,-1.8735,-1.8746,-1.8751,-1.875,-1.8752,-1.8751,-1.8768,-1.876,-1.8746,-1.8745,-1.8744,-1.8744,0,-1.8395,-1.8398,-1.8473,-1.8497,-1.8505,-1.8556,-1.8577,-1.8619,-1.8625,-1.8683,-1.8697,-1.8707,-1.8758,-1.8761,-1.8821,-1.8821,-1.8906,-1.8898,-1.8896,-1.8894,-1.8949,-1.8944,-1.9128,-1.9152,-1.8993,-1.8995,-1.8996,0,-1.8473,-1.8521,-1.8551,-1.858,-1.8597,-1.8644,-1.8672,-1.8668,-1.8699,-1.8737,-1.8774,-1.8824,-1.8863,-1.8947,-1.896,-1.9006,-1.8997,-1.9059,-1.9004,-1.9005,-1.8998,-1.8995,-1.9,-1.9069,-1.9071,-1.9072,-1.9074,0,-1.8612,-1.8612,-1.8653,-1.8696,-1.873,-1.8763,-1.8794,-1.882,-1.8819,-1.8855,-1.8907,-1.8937,-1.8998,-1.9048,-1.9093,-1.9109,-1.9092,-1.9091,-1.9106,-1.9108,-1.9105,-1.9108,-1.8925,-1.9086,-1.9085,-1.9084,-1.9084,-1.9083,-1.8713,-1.8754,-1.8782,-1.8829,-1.8852,-1.8882,-1.8922,-1.8933,-1.8976,-1.9025,-1.902,-1.9078,-1.9108,-1.9166,-1.9186,-1.9232,-1.9211,-1.9234,-1.9239,-1.9244,-1.925,-1.9099,-1.9241,-1.924,-1.924,-1.924,-1.9239,0,-1.885,-1.8867,-1.891,-1.8954,-1.8992,-1.8972,-1.9005,-1.9038,-1.9089,-1.9118,-1.9157,-1.9218,-1.9266,-1.9283,-1.9331,-1.9364,-1.9357,-1.9377,-1.9374,-1.9378,-1.9266,-1.9248,-1.9381,-1.9381,-1.9381,-1.9381,-1.9381,-1.9381,-1.8926,-1.8995,-1.8998,-1.9079,-1.9095,-1.9151,-1.9172,-1.92,-1.9223,-1.9291,-1.9331,-1.9342,-1.9367,-1.9416,-1.946,-1.9464,-1.9482,-1.9504,-1.9505,-1.94,-1.9386,-1.9372,-1.9355,-1.9509,-1.9509,-1.9613,-1.9614,-1.9615]},{"header":{"parameterUnit":"m.s-1","parameterCategory":1,"la1":30.2991,"la2":30.254,"lo1":-89.0895,"lo2":-89.0444,"dy":0.0017,"dx":0.0017,"nx":28,"ny":28,"refTime":"2025-12-13T03:00:00:Z","depth":0,"parameterNumber":3,"parameterNumberName":"V-component_of_WINDS"},"data":[0,0,0,0,0,0,0,0,0,0,0,0,0,0,0,0,0,0,0,0,0,0,0,0,0,0,0,0,0,0,0,0,0,0,0,0,0,0,0,0,0,0,0,0,0,0,0,0,0,0,0,0,0,0,0,0,0,0,0.346,0.3461,0,0.3547,0.3548,0.3549,0.3576,0.3576,0.3576,0.3575,0.3663,0.3666,0.3669,0,0,0,0,0,0,0,0,0,0,0,0,0,0.3317,0.3319,0.346,0.3461,0.3462,0.3547,0.3548,0.3549,0.3576,0.3576,0.3575,0.3575,0.3662,0.3666,0.3669,0,0,0,0,0,0,0,0,0,0,0,0,0,0.3389,0.332,0.346,0.3486,0.3489,0.3547,0.3548,0.3549,0.3577,0.3576,0.3575,0.3575,0.3661,0.3665,0.3669,0.3707,0,0,0.3682,0.3684,0,0,0,0,0,0,0,0,0.3385,0.3394,0.3481,0.3484,0.3488,0.355,0.353,0.3602,0.3577,0.3543,0.3575,0.3574,0.3626,0.3633,0.3651,0.3711,0.3715,0.3682,0.3685,0.3686,0.3687,0,0,0,0,0,0,0,0.338,0.3391,0.3494,0.3482,0.3486,0.3493,0.3503,0.3544,0.3587,0.3546,0.3548,0.3558,0.3628,0.3647,0.3653,0.3716,0.3682,0.3686,0.3688,0.369,0.3813,0.3814,0,0,0,0,0,0,0.337,0.3386,0.3491,0.3497,0.3434,0.3496,0.3507,0.3531,0.3587,0.3595,0.3559,0.3559,0.364,0.3648,0.3656,0.3705,0.3686,0.369,0.3692,0.3812,0.3813,0.3814,0,0,0,0,0,0,0.3367,0.338,0.3488,0.3442,0.3457,0.3499,0.3526,0.3533,0.3552,0.3596,0.3604,0.357,0.364,0.365,0.3694,0.3708,0.3692,0.3696,0.3811,0.3812,0.3813,0.3802,0,0,0,0,0,0,0.3363,0.3378,0.3393,0.3442,0.3459,0.3525,0.3527,0.3535,0.3559,0.356,0.3609,0.3616,0.364,0.3688,0.3698,0.3714,0.3699,0.381,0.3812,0.3813,0.3801,0.3802,0.3804,0,0,0,0,0,0.3358,0.3385,0.3393,0.3406,0.3478,0.3525,0.3535,0.3562,0.356,0.3575,0.3604,0.3615,0.3705,0.3692,0.3704,0.3721,0.3809,0.3811,0.3813,0.3801,0.3802,0.3804,0,0,0,0,0,0,0.3336,0.3392,0.3402,0.3446,0.3481,0.353,0.355,0.3563,0.3598,0.3598,0.363,0.3641,0.3683,0.3706,0.3691,0.3761,0.3758,0.3762,0.3744,0.3746,0.3747,0.3741,0.3702,0,0,0,0,0,0.3336,0.337,0.3418,0.3452,0.3469,0.3507,0.3528,0.3546,0.3583,0.3598,0.363,0.3665,0.3702,0.3725,0.3761,0.3804,0.3816,0.3822,0.3823,0.3824,0.3827,0.3853,0.3857,0.382,0.382,0.382,0,0,0.3337,0.3372,0.3392,0.3449,0.3478,0.3513,0.3519,0.3555,0.3581,0.3603,0.3647,0.3672,0.3714,0.3758,0.3779,0.3779,0.384,0.3826,0.3826,0.383,0.3856,0.3859,0.3862,0.3821,0.3821,0.3821,0,0,0.3357,0.3386,0.3419,0.3449,0.3493,0.3518,0.3525,0.3573,0.3591,0.3635,0.3653,0.3685,0.3747,0.3776,0.3799,0.3831,0.3843,0.3842,0.3849,0.3874,0.3877,0.3879,0.3892,0.3896,0.3845,0.3845,0.3845,0,0.3353,0.3406,0.3434,0.347,0.3495,0.3518,0.3552,0.3579,0.3632,0.3649,0.3648,0.3727,0.3756,0.3809,0.3817,0.3834,0.3845,0.3837,0.3874,0.3877,0.388,0.3892,0.3897,0.3845,0.3845,0.3845,0.3845,0,0.3399,0.3435,0.3457,0.3509,0.3536,0.3571,0.3605,0.3629,0.3645,0.367,0.3716,0.3752,0.3797,0.381,0.3825,0.3865,0.3864,0.3868,0.3865,0.3883,0.3895,0.39,0.3844,0.3844,0.3845,0.3845,0,0,0.3407,0.3475,0.3483,0.3507,0.3558,0.3587,0.3623,0.3667,0.3688,0.3724,0.3755,0.3808,0.3812,0.3838,0.3857,0.3879,0.3904,0.3881,0.3882,0.3885,0.3951,0.3948,0.3953,0.3912,0.3913,0.3914,0.3948,0,0.3434,0.35,0.3527,0.358,0.3615,0.3638,0.3669,0.3704,0.3728,0.3761,0.3788,0.3825,0.3828,0.3844,0.3867,0.3896,0.3918,0.3894,0.3942,0.3943,0.3932,0.396,0.3957,0.3987,0.3953,0.3954,0.3954,0,0.3475,0.3512,0.3569,0.3617,0.3632,0.366,0.3704,0.3735,0.3775,0.3791,0.3821,0.3839,0.3878,0.3873,0.3927,0.391,0.3932,0.3949,0.3951,0.3957,0.395,0.3968,0.3997,0.4002,0.3962,0.3961,0.3961,0,0.3476,0.3541,0.3584,0.3604,0.366,0.368,0.3704,0.3744,0.3769,0.3806,0.3823,0.3865,0.3887,0.3919,0.3948,0.3941,0.4,0.3997,0.4016,0.4015,0.4027,0.4026,0.4062,0.4039,0.4039,0.4039,0.4039,0,0.3504,0.3538,0.3585,0.3612,0.3651,0.3682,0.372,0.3746,0.3781,0.3813,0.3835,0.3864,0.39,0.3934,0.3957,0.4,0.4009,0.4024,0.403,0.4023,0.4021,0.4038,0.4037,0.404,0.404,0.404,0.404,0,0.3513,0.3546,0.3594,0.3644,0.3658,0.3684,0.3727,0.3754,0.378,0.382,0.3831,0.3872,0.3913,0.3945,0.3999,0.4014,0.406,0.4065,0.4046,0.4049,0.4067,0.4065,0.4115,0.4124,0.4094,0.4094,0.4094,0,0.3529,0.3556,0.361,0.3633,0.3658,0.3694,0.3721,0.3753,0.3779,0.3828,0.3849,0.3892,0.3928,0.3993,0.4028,0.4069,0.4077,0.4091,0.4083,0.4075,0.4078,0.4077,0.408,0.4092,0.4093,0.4093,0.4093,0,0.3555,0.357,0.3607,0.365,0.3681,0.3717,0.3752,0.377,0.3809,0.3837,0.3881,0.3909,0.3964,0.4007,0.4052,0.4078,0.4092,0.4095,0.4102,0.4095,0.4084,0.4092,0.405,0.4094,0.4094,0.4094,0.4094,0.4094,0.3569,0.3594,0.3636,0.3677,0.3708,0.3741,0.3769,0.3799,0.3836,0.3884,0.39,0.3945,0.3986,0.4048,0.4074,0.4109,0.411,0.4119,0.4122,0.4124,0.4124,0.4077,0.4117,0.4117,0.4117,0.4117,0.4117,0,0.3597,0.3625,0.3663,0.3713,0.3745,0.3756,0.3797,0.3823,0.3862,0.3899,0.3935,0.3985,0.4027,0.4065,0.4109,0.413,0.4138,0.414,0.414,0.4146,0.412,0.4111,0.4134,0.4134,0.4134,0.4134,0.4134,0.4133,0.3615,0.366,0.368,0.374,0.3768,0.3813,0.3835,0.3866,0.3896,0.3951,0.3986,0.4011,0.4048,0.4095,0.4135,0.4145,0.416,0.4162,0.4173,0.4149,0.4147,0.4145,0.4136,0.4164,0.4164,0.4196,0.4196,0.4196]}]]